LFQA

Details ICAO LFQA
Name Reims Prunay
Region France
Timezone Europe/Paris (UTC+2.0)
Plans Departing 25
Arriving 20
Stats Elevation 313 ft / 95 m (AMSL)
Location 49.208822° 4.157050°
Runways 1
Magnetic Variation 1.178° E
Sunrise 2018-06-25 03:40:22 UTC / 2018-06-25 05:40:22 Local
Sunset 2018-06-25 19:54:00 UTC / 2018-06-25 21:54:00 Local
Advertisement - Login to hide

Runways

ID Width Length Bearing (true) Bearing (mag) Surface Threshold Offset Overrun Length
07 98 ft / 30 m 3,770 ft / 1,149 m 66.27° 65.09° Asphalt 640 ft / 195 m 0 ft / 0 m
25 98 ft / 30 m 3,770 ft / 1,149 m 246.29° 245.11° Asphalt 1,066 ft / 325 m 0 ft / 0 m

Map

Weather


0- 5 10 15 20 25 30 35+ Temperature / ° C

Clouds and Precipitation
Forecast for 2018-06-25 18:00 UTC. Updated 2 hours ago

Ground ~20,000 ft ~40,000 ft Winds

METAR

LFQA 251730Z AUTO 02008KT 360V060 CAVOK 23/12 Q1023

TAF

Not found

Frequencies

Tower 134.92 MHz AFIS
Approach 119.80 MHz REIMS APP
Warning: Do not use this data for real-world aviation or navigation. No guarantee of current accuracy is given.